Regional Weather Roundup
Issued by NWS

Home | Current Version | Previous Version | Graphics & Text | Print | Product List | Glossary On
Versions: 1 2 3 4 5 6 7 8 9 10 11 12 13 14 15 16 17 18 19 20 21 22 23 24 25 26 27 28 29 30 31 32 33 34 35 36 37 38 39 40 41 42 43 44 45 46 47 48 49 50
000
ASUS45 KPSR 071700
RWRAZ

ARIZONA HOURLY REGIONAL WEATHER ROUNDUP
NATIONAL WEATHER SERVICE PHOENIX AZ
1000 AM MST TUE JUL 07 2015

NOTE: FAIR INDICATES FEW OR NO CLOUDS BELOW 12,000 FEET WITH NO
SIGNIFICANT WEATHER AND/OR OBSTRUCTIONS TO VISIBILITY.

AZZ001>003-036-071800-
NORTHWEST ARIZONA

CITY           SKY/WX    TMP DP  RH WIND       PRES   REMARKS
KINGMAN        SUNNY     90  48  23 VRB3      30.05F
$$

AZZ004>008-015-016-018-071800-
NORTH CENTRAL ARIZONA

CITY           SKY/WX    TMP DP  RH WIND       PRES   REMARKS
GRAND CANYON   PTSUNNY   71  47  42 W12G17    30.26F
WILLIAMS       MOSUNNY   70  48  46 N5        30.36S
PRESCOTT       MOSUNNY   76  57  51 N8        30.18F
FLAGSTAFF      NOT AVBL
PAYSON         SUNNY     81  52  36 W13       30.19F
$$

AZZ009>014-017-071800-
NORTHEAST ARIZONA

CITY           SKY/WX    TMP DP  RH WIND       PRES   REMARKS
WINSLOW        NOT AVBL
SAINT JOHNS    SUNNY     76  51  41 N5        30.20F
WINDOW ROCK    SUNNY     77  46  33 W10       30.25F
SHOW LOW       SUNNY     73  46  38 SW8       30.26F
$$

AZZ023-071800-
GREATER PHOENIX AREA

CITY           SKY/WX    TMP DP  RH WIND       PRES   REMARKS
PHOENIX        MOSUNNY   95  59  30 NE6       29.89F
GLENDALE       MOSUNNY   97  54  23 S6        29.91F
LUKE AFB       SUNNY     95  54  24 S7        29.88F
DEER VALLEY    SUNNY     93  52  24 CALM      29.91F
SCOTTSDALE     SUNNY     93  57  29 N3        29.93F
MESA-GATEWAY   MOSUNNY   91  63  38 SE5       29.94F
CHANDLER       SUNNY     93  61  33 E3        29.91F
$$

AZZ027-028-071800-
SOUTHWEST MARICOPA COUNTY AND PINAL COUNTY

CITY           SKY/WX    TMP DP  RH WIND       PRES   REMARKS
CASA GRANDE    SUNNY     93  55  27 CALM      29.92S
$$

AZZ503-504-507>509-071800-
SOUTHEAST ARIZONA

CITY           SKY/WX    TMP DP  RH WIND       PRES   REMARKS
TUCSON         MOSUNNY   91  59  33 VRB5      30.02F
DAVIS-MONTHAN  SUNNY     87  62  41 W6        30.01F
RYAN FIELD     SUNNY     91  61  35 NW6       30.01F
NOGALES        SUNNY     84  63  49 VRB6      30.11F
SIERRA VISTA   SUNNY     81  59  47 VRB2      30.16F
SAFFORD        SUNNY     89  59  36 NW10      30.01F
$$

AZZ020-021-025-026-031-071800-
SOUTHWEST ARIZONA

CITY           SKY/WX    TMP DP  RH WIND       PRES   REMARKS
YUMA           NOT AVBL
$$

CAZ031-033-041-043-047-048-061-071800-
SOUTHERN CALIFORNIA

CITY           SKY/WX    TMP DP  RH WIND       PRES   REMARKS
DOWNTOWN L.A.  CLOUDY    67  60  78 CALM      29.99F
L.A. AIRPORT   CLOUDY    65  61  87 CALM      30.00F
SAN DIEGO      CLOUDY    66  59  78 S5        30.01F
BURBANK        CLOUDY    67  58  72 E6        30.00F HAZE
ONTARIO        CLOUDY    67  58  72 SW5       30.00F HAZE
RIVERSIDE      CLOUDY   N/A N/A N/A MISG        N/A  HAZE
PALM SPRINGS   SUNNY     94  57  28 VRB5      29.85F
EL CENTRO NAS  SUNNY     94  60  32 N5        29.82F
IMPERIAL       SUNNY     91  62  37 VRB3      29.80F
BLYTHE         SUNNY     96  46  18 S6        29.83F
$$

NVZ020-UTZ003-071800-
SOUTHERN NEVADA-UTAH

CITY           SKY/WX    TMP DP  RH WIND       PRES   REMARKS
LAS VEGAS      NOT AVBL
SALT LAKE CITY MOSUNNY   79  53  40 SE9       30.06F
$$

NMZ009-TXZ055-071800-
NEW MEXICO-WEST TEXAS

CITY           SKY/WX    TMP DP  RH WIND       PRES   REMARKS
ALBUQUERQUE    MOSUNNY   72  54  53 S8        30.23S
EL PASO        MOSUNNY   84  59  42 N7        30.09F
$$


........................KEY........................
SKY/WX - SKY CONDITION/WEATHER
TMP    - TEMPERATURE IN FAHRENHEIT
DP     - DEW POINT IN FAHRENHEIT
RH     - RELATIVE HUMIDITY IN PERCENT
WIND   - DIRECTION AND SPEED IN MILES PER HOUR (MPH)
VRB    - VARIABLE WIND DIRECTION
PRES   - MEAN SEA LEVEL PRESSURE IN INCHES OF MERCURY
         F - FALLING PRESSURE   R - RISING PRESSURE
         S - STEADY PRESSURE
VSB    - VISIBILITY IN MILES
HX     - HEAT INDEX IN FAHRENHEIT
WCI    - WIND CHILL INDEX IN FAHRENHEIT
TC     - TEMPERATURE IN CELSIUS WHICH IS ALSO KNOWN AS
         TEMPERATURE IN CENTIGRADE
AFB    - AIR FORCE BASE
         LUKE AFB IS LUKE AIR FORCE BASE
         DAVIS-MONTHAN IS DAVIS-MONTHAN AIR FORCE BASE
NAS    - NAVAL AIR STATION
         EL CENTRO NAS IS EL CENTRO NAVAL AIR STATION
N/A    - NOT AVAILABLE




USA.gov is the U.S. government's official web portal to all federal, state and local government web resources and services.